SCP
0 0 0 0 0 0 0 0 0 0 0 0 0 0 0 0 0 0 0 0 0 0 0 0 0 0 0 0 0 0 0 0 0 0 0 0 0 0
0 0 0 0 0 0 0 0 0 0 0 0 0 0 0 0 0 0 0 0 0 0 0 0 0 0 0 0 0 0 0 0 0 0 0 0 0 0
0 0 0 0 0 0 0 0 0 0 0 0 0 0 0 0 0 0 0 0 0 0 0 0 0 0 0 0 0 0 0 0 0 0 0 0 0 0
0 0 0 0 0 0 0 0 0 0 0 0 0 0 0 0 0 0 0 0 0 0 0 0 0 0 0 0 0 0 0 0 0 0 0 0 0 0
0 0 0 0 0 0 0 0 0 0 0 0 0 0 0 0 0 0 0 0 0 0 0 0 0 0 0 0 0 0 0 0 0 0 0 0 0 0
0 0 0 0 0 0 0 0 0 0 -0 -0 0 0 0 0 0 0 0 0 0 0 0 0 0 0 0 0 0 0 0 0 0 0 0 0 0 0
0 0 0 0 0 0 0 0 0 0 -0 -0 -0 0 0 0 0 0 0 0 0 0 0 0 0 0 0 0 0 0 0 0 0 0 0 0 0 0
0 0 0 0 0 0 0 0 0 0 0 -0 -0 0 0 0 0 0 0 0 0 0 0 0 0 0 0 0 0 0 0 0 0 0 0 0 0 0
0 0 0 0 0 0 0 0 0 0 0 -0 -0 -0 0 0 0 0 0 0 0 0 0 0 0 0 0 0 0 0 0 0 0 0 0 0 0 0
0 0 0 0 0 0 0 0 0 0 0 0 -0 -0 0 0 0 0 0 0 0 0 0 0 0 0 0 0 0 0 0 0 0 0 0 0 0 0
0 0 0 0 0 0 0 0 0 0 -0 -0 -0 0 0 0 0 0 0 0 0 0 0 0 0 0 0 0 0 0 0 0 0 0 0 0 0 0
0 0 0 0 0 0 0 0 0 0 -0 -0 -0 0 0 0 0 0 0 0 0 0 0 0 0 0 0 0 0 0 0 0 0 0 0 0 0 0
0 0 0 0 0 0 0 0 0 0 -0 -0 -0 0 0 0 0 0 0 0 0 0 0 0 0 0 0 0 0 0 0 0 0 0 0 0 0 0
0 0 0 0 0 0 0 0 0 0 0 0 0 0 0 0 0 0 0 0 0 0 0 0 0 0 0 0 0 0 0 0 0 0 0 0 0 0
0 0 0 0 0 0 0 0 0 0 0 -0 -0 0 0 -0 -0 0 0 0 0 0 0 0 0 0 0 0 0 0 0 0 0 0 0 0 0 0
0 0 0 0 0 0 0 0 0 0 0 0 -0 0 0 -0 -0 0 0 0 0 0 0 0 0 0 0 0 0 0 0 0 0 0 0 0 0 0
0 0 0 0 0 0 0 0 0 0 0 0 0 0 0 0 0 0 0 0 0 0 0 0 0 0 0 0 0 0 0 0 0 0 0 0 0 0
0 0 0 0 0 0 0 0 0 0 0 0 0 0 0 0 0 0 0 0 0 0 0 0 0 0 0 0 0 0 0 0 0 0 0 0 0 0
0 0 0 0 0 0 0 0 0 0 0 0 0 0 0 0 0 0 0 0 0 0 0 0 0 0 0 0 0 0 0 0 0 0 0 0 0 0
0 0 0 0 0 0 0 0 0 0 0 0 0 0 0 0 0 0 0 0 0 0 0 0 0 0 0 0 0 0 0 0 0 0 0 0 0 0
0 0 0 0 0 0 0 0 0 0 0 0 0 0 0 0 0 0 0 0 0 0 0 0 0 0 0 0 0 0 0 0 0 0 0 0 0 0
0 0 0 0 0 0 0 0 0 0 0 0 0 0 0 0 0 0 0 0 0 0 0 0 0 0 0 0 0 0 0 0 0 0 0 0 0 0
0 0 0 0 0 0 0 0 0 0 0 0 0 0 0 0 0 0 0 0 0 0 0 0 0 0 0 0 0 0 0 -0 -0 0 0 0 0 0
Wind_Speed
1 1 1 1 1 1 1 2 2 1 2 3 2 2 1 1 1 1 1 2 4 4 4 5 5 6 6 6 6 6 6 7 7 8 9 9 10 11
1 1 2 1 1 1 1 1 2 3 2 3 2 2 2 1 2 1 2 3 4 5 5 5 5 5 5 6 6 7 6 6 7 7 8 9 8 8
2 2 3 2 1 1 1 1 1 2 3 3 2 2 1 2 1 1 1 2 2 5 5 5 6 6 6 6 6 7 7 6 7 7 7 8 8 7
3 3 3 2 2 2 1 2 2 2 3 3 2 2 2 2 2 2 2 2 2 4 6 6 6 6 6 6 7 7 7 7 7 6 7 7 8 8
3 3 4 3 3 3 3 3 2 2 2 3 3 2 2 1 1 2 2 1 2 3 5 6 6 6 6 6 6 7 7 7 7 7 7 7 7 7
3 3 4 3 4 4 3 4 3 2 2 2 3 2 2 2 1 2 2 1 2 2 2 3 4 6 7 7 7 7 7 7 7 7 7 6 6 7
4 3 4 5 6 4 3 3 3 3 2 2 3 2 2 2 2 2 3 2 2 2 1 2 2 2 3 5 7 8 8 8 8 7 7 6 6 6
4 4 5 5 7 8 8 7 5 4 4 3 4 4 5 4 3 3 3 2 2 2 2 2 2 2 2 3 6 8 9 9 8 8 7 7 7 6
4 4 5 5 5 4 6 7 7 9 8 5 6 7 6 6 5 4 4 4 5 3 3 2 2 3 3 3 7 8 9 9 8 8 8 7 6 7
4 4 5 6 5 5 4 5 6 6 8 6 6 7 7 6 7 7 6 4 2 2 3 3 2 2 2 2 6 8 8 8 8 8 8 7 6 6
5 5 5 6 10 9 5 6 7 7 8 10 10 10 11 11 7 4 4 3 3 3 3 3 2 2 1 2 3 6 7 7 7 7 7 7 6 6
5 5 8 9 12 11 6 6 8 8 7 6 7 8 8 9 10 8 7 5 3 3 4 4 3 3 2 1 1 2 3 5 6 6 7 7 7 4
5 5 6 12 14 14 11 7 11 10 6 6 6 5 5 5 6 6 7 7 6 5 5 5 4 3 3 2 1 1 2 2 2 3 5 6 7 6
6 6 7 14 15 15 11 12 15 11 5 5 5 6 6 6 6 6 7 7 7 7 7 7 5 5 4 3 2 2 1 2 2 2 2 4 4 4
6 11 13 15 14 11 13 15 12 6 5 6 7 7 6 6 5 3 4 4 4 4 5 6 5 5 4 4 4 3 3 2 3 3 3 3 3 3
7 10 14 13 10 10 10 8 6 6 6 7 7 6 5 4 5 4 4 4 3 3 3 5 7 7 5 4 5 4 4 4 4 3 3 2 1 2
8 5 4 5 5 5 5 5 5 5 6 6 6 5 5 5 6 5 4 4 5 5 4 2 2 3 4 5 4 5 4 3 4 5 4 3 1 2
9 5 6 6 6 7 7 6 5 6 6 6 6 6 6 6 6 5 5 5 6 6 6 5 4 3 1 1 2 5 5 4 4 4 4 4 2 1
5 5 6 6 7 7 7 7 7 6 6 6 7 6 6 7 7 7 7 6 6 7 6 6 7 7 6 5 3 3 5 5 5 4 3 3 4 3
4 6 6 7 6 7 7 7 7 6 6 6 7 6 6 7 7 8 8 8 7 6 6 6 8 9 9 8 5 2 3 5 6 5 4 3 2 3
6 6 7 7 7 7 7 7 7 7 7 7 6 7 6 6 7 8 7 10 8 7 9 9 9 9 4 5 4 2 1 1 6 6 6 5 3 2
7 7 7 7 7 7 7 7 7 7 7 7 7 7 6 6 7 8 8 8 8 8 7 5 6 7 5 7 7 5 4 2 3 6 6 8 7 7
7 7 7 7 7 7 7 8 9 8 7 7 6 7 6 7 6 7 7 7 7 7 6 6 5 5 5 6 7 6 7 5 4 3 2 2 5 7
Wind_Direction
292 294 289 280 274 234 189 169 162 262 295 285 293 294 273 234 220 212 230 217 201 194 191 189 190 189 191 191 187 191 195 197 199 199 204 210 214 213
286 293 295 283 294 282 213 199 178 181 244 274 266 274 269 248 214 215 226 227 218 204 197 197 199 198 196 194 193 194 196 198 196 197 201 205 211 212
301 285 277 268 273 281 262 216 200 182 227 274 274 277 258 251 254 243 231 223 229 218 208 204 204 206 203 199 195 193 195 200 205 204 206 207 209 213
292 290 282 277 264 260 248 246 235 211 205 249 274 276 251 236 229 233 229 221 227 230 220 214 209 207 206 203 199 196 195 198 202 205 209 210 210 213
280 274 275 274 269 262 248 243 244 242 211 221 254 259 259 247 226 249 239 241 228 226 221 220 216 212 209 205 202 200 198 197 200 204 208 209 209 210
285 275 274 261 257 259 258 249 243 247 237 227 244 254 255 257 197 219 243 245 241 229 214 209 211 214 214 209 205 201 199 199 200 202 205 207 207 207
303 293 281 275 270 261 258 249 242 242 242 233 240 245 240 227 222 213 218 236 253 218 200 217 202 210 218 214 209 205 202 200 199 198 200 201 200 199
297 301 299 291 289 279 273 257 231 231 238 232 235 234 237 223 215 208 200 198 245 224 181 223 189 214 220 213 209 205 202 199 196 194 195 195 195 196
290 297 308 309 299 291 289 284 265 252 238 233 233 236 234 223 206 208 206 205 220 207 167 216 201 217 223 219 207 204 201 199 195 194 193 191 192 194
292 280 281 287 292 287 283 287 280 273 255 243 242 247 242 233 211 208 208 209 234 218 170 199 202 210 211 215 213 206 202 200 196 191 188 186 186 187
299 302 298 289 295 299 284 276 282 282 271 254 253 257 254 243 219 192 186 183 220 228 192 183 189 184 204 220 220 207 202 198 195 192 187 182 179 176
302 298 300 303 305 304 287 272 274 278 278 276 268 264 261 251 228 209 196 193 195 217 201 177 178 159 194 232 210 200 198 204 201 196 190 182 174 165
301 298 296 307 306 301 293 271 267 276 270 258 262 262 258 249 237 223 208 200 198 214 193 170 174 172 173 185 200 192 183 182 182 193 190 183 176 169
292 289 292 304 306 303 295 284 283 284 269 260 260 258 252 247 240 232 221 216 213 211 189 172 176 177 167 172 198 184 182 186 172 176 174 165 166 168
292 295 298 300 301 299 291 290 288 274 261 256 253 252 246 243 233 230 234 219 221 219 193 182 176 176 176 181 179 173 173 193 183 171 166 164 172 162
302 301 302 297 289 284 292 292 279 262 258 253 251 252 253 243 231 215 218 211 208 230 215 192 184 176 183 185 177 182 179 178 177 176 160 154 154 162
306 302 303 306 303 299 292 283 278 276 267 258 252 252 253 247 240 219 208 206 213 209 203 188 171 165 173 169 176 185 176 178 175 165 157 158 174 179
310 300 299 298 294 293 294 293 283 273 270 269 261 250 245 245 244 226 211 209 215 213 201 184 163 141 108 336 194 181 179 177 168 158 150 155 178 197
299 288 289 291 291 290 287 286 284 277 273 270 266 259 251 246 242 230 217 217 218 213 203 186 180 176 188 206 228 194 177 167 153 153 157 154 171 183
282 282 285 286 287 289 287 285 284 282 274 273 270 263 254 247 244 238 222 218 215 211 205 193 193 192 198 194 183 188 179 166 163 162 151 117 95 85
290 284 282 283 285 285 285 284 282 279 274 271 269 266 259 254 250 243 232 221 214 208 209 207 203 184 153 130 134 157 181 172 167 161 153 140 136 138
284 285 283 280 282 283 282 280 282 280 276 271 268 265 261 252 249 247 237 225 219 210 212 201 167 161 166 175 177 170 158 118 98 118 142 157 160 175
280 283 282 281 280 280 280 279 279 279 276 271 270 267 262 257 248 243 240 232 224 206 195 186 175 175 179 175 169 163 158 153 138 116 73 81 151 159